Showing default

BLACKJACK ACES-2, 56955

Orbit data source: Space-Track

BLACKJACK ACES-2, 56955 is a payload satellite owned by DARPA (US) in SSO that was launched on Mon, 12 Jun 2023 UTC via an FALCON 9 launch vehicle from the Air Force Western Test Range (AFWTR). Payload-class satellites include a variety of spacecraft equipped with specific instruments for various scientific and technological missions. These include communications satellites like Starlink; space stations such as the ISS; scientific satellites like the Hubble; Earth observation satellites from companies like Planet Labs, Umbra, and HawkEye 360; GPS; miniature CubeSats for education and research; and military/defense satellites.

Loading next visibility...
Identifier
56955, 2023-084Z
Orbit
SSO
Country
Flag of USUS
Related business
Manufacturer
BLCAN/LMSS
Mission
Operational Defense Communications
Bus & Motor
X-SAT, Unknown motor
Mass
~200 kg wet, ~200 kg dry
Launch date (UTC)
2023-06-12 (2 years ago)
Launch vehicle
FALCON 9
Launch site
Air Force Western Test Range (AFWTR)
Object type
Payload
Rocket body
Debris
Shape & HBR
Box, 3.6 m
Radar Cross Section
0.875 m², Large (>1 m²)

Expand to show TLE details & history
Last TLE update: 20 hours ago

TLE from 20 hours ago
0 BLACKJACK ACES-2
1 56955U 23084Z   25286.30506141  .00002251  00000-0  10398-3 0  9994
2 56955  97.5913  54.6660 0010329 119.2423 240.9846 15.21224462129677
Epoch: 2025-10-13T07:19Z
TLE epoch observation values (Epoch: 2025-10-13T07:19:17.305Z)
Latitude
-0.00008°
Longitude
-77.26585°
Altitude
508.686 km
Speed
7.608 km/s
True Right ascension
03h 38m 39s
True Declination
0° 00' 00"
Sunlit
Object was in full shadow at epoch
Visualization orbit readout
Latitude
Unknown
Longitude
Unknown
Altitude
Unknown
Speed
Unknown
Apparent Right ascension
Unknown
Apparent Declination
Unknown
Sunlit
N/A
Visualization observer readout
Local Sidereal Time
22:00:26
Azimuth
Unknown
Elevation
Unknown
Doppler factor
Unknown
Orbital elements
Apogee altitude
506.222 km
Perigee altitude
492.015 km
Semi-major axis
6,877.255 km
Eccentricity
0.00103
Inclination
97.5913°
RAAN
54.666°
Arg. of periapsis
119.2423°
True anomaly
240.88116°
Mean anomaly
240.9846°
Eccentric anomaly
240.93287°
Mean motion
3.80558 °/min
Orbital period
94.6 mins
BSTAR
0.00010398
Loading maneuver chart data...
Computing Atmospheric mass density...
Loading historical data...
Loading historical data...
Loading historical data...
Loading historical data...
Loading historical data...
Loading historical data...
Loading historical data...

Documentation

Showing up to 5 results
|